This demonstration page uses our WeatherBlox Daily Observations layout. Learn more.

Left ArrowRight Arrow

39.01783, -85.05884

Hourly Observations for May 31, 2015

Temp ( °F °C ) Dew Point ( °F °C ) Humidity (%) Winds ( mph kmh ) Pressure ( in mb ) Visibility ( mi km ) Precip ( " mm )
12:52 am 00:52 Mostly Cloudy 71 21.7 63 17.2 76 76 SSE 6 9 29.93 1014 10 16 N/A
1:52 am 01:52 Mostly Cloudy 70 21.1 63 17.2 79 79 S 6 9 29.93 1014 10 16 N/A
2:52 am 02:52 Cloudy 70 21.1 62 16.7 76 76 S 5 7 29.92 1013 10 16 0.03 0.76
3:52 am 03:52 Cloudy 71 21.7 62 16.7 73 73 S 8 13 29.90 1012 10 16 N/A
4:52 am 04:52 Cloudy 70 21.1 63 17.2 79 79 SSW 8 13 29.90 1013 10 16 N/A
5:31 am 05:31 Cloudy 70 21 63 17 78 78 SSW 9 15 29.91 1013 10 16 N/A
5:52 am 05:52 Cloudy 70 21.1 63 17.2 79 79 SSW 12 19 29.90 1012 10 16 N/A
6:52 am 06:52 Cloudy 70 21.1 64 17.8 82 82 S 9 15 29.91 1013 10 16 N/A
7:52 am 07:52 Cloudy 70 21.1 64 17.8 82 82 SSW 12 19 29.92 1013 10 16 N/A
8:11 am 08:11 Cloudy with Light Rain 68 20 64 18 88 88 SSW 9 15 29.91 1013 5 8 0.02 0.51
8:52 am 08:52 Cloudy with Light Rain 69 20.6 65 18.3 87 87 SSW 15 24 29.93 1014 6 10 0.02 0.51
9:52 am 09:52 Cloudy 70 21.1 65 18.3 84 84 WSW 10 17 29.95 1014 10 16 N/A
10:52 am 10:52 Cloudy 69 20.6 63 17.2 81 81 WSW 12 19 29.96 1015 10 16 N/A
11:52 am 11:52 Cloudy 68 20 62 16.7 81 81 undefined N/A 29.98 1015 10 16 N/A
12:47 pm 12:47 Cloudy 64 18 61 16 88 88 W 18 30 30.00 1016 8 13 N/A
12:52 pm 12:52 Cloudy with Mist and Fog 64 17.8 60 15.6 87 87 W 15 24 30.01 1016 5 8 N/A
1:52 pm 13:52 Cloudy 65 18.3 59 15 81 81 W 13 20 30.01 1016 10 16 N/A
2:29 pm 14:29 Cloudy 64 18 57 14 78 78 W 13 20 30.00 1016 10 16 N/A
2:52 pm 14:52 Cloudy 64 17.8 58 14.4 81 81 W 10 17 30.02 1017 10 16 N/A
3:52 pm 15:52 Cloudy 64 17.8 58 14.4 81 81 W 12 19 30.02 1017 10 16 N/A
4:52 pm 16:52 Cloudy 64 17.8 58 14.4 81 81 WNW 10 17 30.02 1017 10 16 N/A
5:29 pm 17:29 Cloudy with Mist and Fog 63 17 57 14 83 83 NW 14 22 30.06 1018 6 10 N/A
5:52 pm 17:52 Cloudy 62 16.7 57 13.9 84 84 NW 9 15 30.03 1017 7 11 N/A
6:09 pm 18:09 Cloudy 63 17 57 14 83 83 WNW 12 19 30.06 1018 9 14 N/A
6:52 pm 18:52 Cloudy with Haze 62 16.7 57 13.9 84 84 NW 10 17 30.04 1017 6 10 N/A
7:52 pm 19:52 Cloudy 62 16.7 56 13.3 80 80 N 15 24 30.04 1017 10 16 N/A
8:52 pm 20:52 Cloudy 60 15.6 55 12.8 84 84 N 8 13 30.05 1018 10 16 N/A
9:52 pm 21:52 Cloudy 60 15.6 53 11.7 78 78 NNE 12 19 30.07 1018 10 16 N/A
10:44 pm 22:44 Cloudy 57 14 52 11 82 82 N 13 20 30.12 1020 10 16 N/A
10:52 pm 22:52 Cloudy 58 14.4 52 11.1 81 81 NNE 13 20 30.10 1019 10 16 N/A
11:35 pm 23:35 Cloudy 57 14 52 11 82 82 N 12 19 30.12 1020 10 16 N/A
11:52 pm 23:52 Cloudy 58 14.4 50 10 75 75 NNE 14 22 30.11 1020 10 16 N/A

Powered by AerisWeather